Mazatlan Airport, Mexico

3:47 PM MDT on August 17, 2017 (GMT -0600)
Gen Rafael Buelna International

Weather History for MMMZ - October, 2012

Change the Weather History Date:

Wednesday, October 24, 2012

  Actual Average Record
Temperature  
Mean Temperature 76 °F -  
Max Temperature 84 °F 86 °F 91 °F (1997)
Min Temperature 69 °F 67 °F 55 °F (2007)
Cooling Degree Days 12    
Growing Degree Days 26 (Base 50)    
Moisture  
Dew Point 71 °F    
Average Humidity 83    
Maximum Humidity 94    
Minimum Humidity 66    
Precipitation  
Precipitation 0.00 in - - ()
Sea Level Pressure  
Sea Level Pressure 29.77 in    
Wind  
Wind Speed 6 mph ()    
Max Wind Speed 10 mph    
Max Gust Speed -    
Visibility 9.9 miles    
Events      
Averages and records for this station are not official NWS values.
T = Trace of Precipitation, MM = Missing Value Source: Averaged Metar Reports

Daily Weather History Graph

Daily Weather History Graph

Search for Another Location

Airport or City:

Trip Planner

Search our weather history database for the weather conditions in past years. The results will help you decide how hot, cold, wet, or windy it might be!

Date:

Astronomy

Oct. 24, 2012 Rise Set
Actual Time 7:06 AM MDT 6:31 PM MDT
Civil Twilight 6:43 AM MDT 6:54 PM MDT
Nautical Twilight 6:16 AM MDT 7:21 PM MDT
Astronomical Twilight 5:50 AM MDT 7:47 PM MDT
Moon 3:21 PM MDT (10/24) 2:36 AM MDT (10/24)
Length of Visible Light 12h 11m
Length of Day
11h 25m
Waxing Gibbous, 76% of the Moon is Illuminated
Oct 24
Waxing Gibbous
Oct 29
Full
Nov 6
Last Quarter
Nov 13
New
Nov 20
First Quarter

Hourly Weather History & Observations

Time (MDT) Temp. Heat Index Dew Point Humidity Pressure Visibility Wind Dir Wind Speed Gust Speed Precip Events Conditions
12:42 AM 71.6 °F - 69.8 °F 94% 29.76 in 8.0 mi East 5.8 mph - N/A   Clear
1:51 AM 71.6 °F - 69.8 °F 94% 29.77 in 8.0 mi NNE 6.9 mph - N/A   Clear
2:51 AM 71.6 °F - 69.8 °F 94% 29.77 in 8.0 mi North 8.1 mph - N/A   Clear
3:41 AM 71.6 °F - 69.8 °F 94% 29.77 in 8.0 mi North 5.8 mph - N/A   Clear
4:40 AM 71.6 °F - 69.8 °F 94% 29.78 in 8.0 mi NE 5.8 mph - N/A   Clear
5:46 AM 69.8 °F - 68.0 °F 94% 29.79 in 8.0 mi NNE 6.9 mph - N/A   Clear
6:46 AM 69.8 °F - 68.0 °F 94% 29.79 in 8.0 mi North 4.6 mph - N/A   Partly Cloudy
7:42 AM 69.8 °F - 68.0 °F 94% 29.81 in 8.0 mi NNE 5.8 mph - N/A   Partly Cloudy
8:40 AM 75.2 °F - 71.6 °F 89% 29.82 in 10.0 mi NE 6.9 mph - N/A   Clear
9:44 AM 78.8 °F - 71.6 °F 78% 29.84 in 10.0 mi NNW 4.6 mph - N/A   Clear
10:47 AM 82.4 °F 88.2 °F 73.4 °F 74% 29.84 in 10.0 mi WSW 6.9 mph - N/A   Clear
11:50 AM 84.2 °F 90.9 °F 73.4 °F 70% 29.83 in 12.0 mi SSW 5.8 mph - N/A   Partly Cloudy
12:50 PM 84.2 °F 90.9 °F 73.4 °F 70% 29.80 in 12.0 mi SSW 6.9 mph - N/A   Partly Cloudy
1:44 PM 80.6 °F 85.4 °F 73.4 °F 79% 29.77 in 12.0 mi SW 8.1 mph - N/A   Clear
2:45 PM 84.2 °F 90.9 °F 73.4 °F 70% 29.74 in 12.0 mi SW 10.4 mph - N/A   Clear
3:41 PM 84.2 °F 89.6 °F 71.6 °F 66% 29.73 in 12.0 mi SW 9.2 mph - N/A   Clear
4:40 PM 82.4 °F 87.2 °F 71.6 °F 70% 29.72 in 12.0 mi WSW 10.4 mph - N/A   Clear
5:42 PM 80.6 °F 83.9 °F 69.8 °F 70% 29.72 in 12.0 mi West 9.2 mph - N/A   Clear
6:41 PM 78.8 °F - 69.8 °F 74% 29.74 in 10.0 mi WNW 5.8 mph - N/A   Clear
7:40 PM 75.2 °F - 69.8 °F 83% 29.74 in 10.0 mi NNW 6.9 mph - N/A   Clear
8:42 PM 75.2 °F - 69.8 °F 83% 29.74 in 10.0 mi North 6.9 mph - N/A   Clear
9:41 PM 73.4 °F - 69.8 °F 88% 29.76 in 10.0 mi NW 5.8 mph - N/A   Clear
10:47 PM 71.6 °F - 69.8 °F 94% 29.76 in 10.0 mi North 5.8 mph - N/A   Clear
11:53 PM 71.6 °F - 69.8 °F 94% 29.77 in 10.0 mi NNE 4.6 mph - N/A   Clear